Simultaneous Nadir Overpasses (SNOs) Predictions

Prediction of SNOs between LANDSAT-8 and METOP-B Satellite Orbit:

Table of predicted SNOs for the next 14.0 days since TLE Epoch: 9/24/2016
Index Date (LANDSAT-8) Time (LANDSAT-8) Lat,Lon (LANDSAT-8) SZA (LANDSAT-8 ) Date (METOP-B) Time (METOP-B) Lat,Lon (METOP-B) SZA (METOP-B ) Distance(km) Time Diff (sec)
1 09/25/2016 00:12:53 -81.08, 36.15 95.78 09/25/2016 00:12:11 -81.08, 36.31 95.78 2.79 42
2 09/25/2016 01:02:18 81.11,-155.75 84.31 09/25/2016 01:02:50 81.11,-155.76 84.32 0.67 32
3 09/27/2016 19:47:07 -81.08, 102.62 94.66 09/27/2016 19:46:34 -81.08, 102.68 94.66 1.12 33
4 09/27/2016 20:36:32 81.11, -89.31 85.43 09/27/2016 20:37:13 81.11, -89.39 85.43 1.62 41
5 09/30/2016 15:21:22 -81.08, 169.05 93.55 09/30/2016 15:20:58 -81.08, 169.04 93.56 0.16 24
6 09/30/2016 16:10:47 81.11, -22.90 86.53 09/30/2016 16:11:37 81.10, -23.03 86.54 2.35 50
7 10/03/2016 10:55:37 -81.08,-124.55 92.45 10/03/2016 10:55:22 -81.08,-124.61 92.46 0.99 15
8 10/03/2016 11:45:02 81.11, 43.48 87.63 10/03/2016 11:46:01 81.10, 43.32 87.64 2.71 59
9 10/06/2016 06:29:52 -81.07, -58.19 91.36 10/06/2016 06:29:46 -81.08, -58.27 91.37 1.48 6




NCC Satellite Simultaneous Nadir Overpasses (SNOs) Prediction Service
